Change the Weather History Date:

Monday, September 23, 2013

  Actual Average Record
Temperature  
Mean Temperature 69 °F -  
Max Temperature 87 °F 82 °F 89 °F (2011)
Min Temperature 51 °F 59 °F 51 °F (2013)
Cooling Degree Days 4    
Growing Degree Days 19 (Base 50)    
Moisture  
Dew Point 53 °F    
Average Humidity 62    
Maximum Humidity 94    
Minimum Humidity 31    
Precipitation  
Precipitation 0.00 in - - ()
Sea Level Pressure  
Sea Level Pressure 29.87 in    
Wind  
Wind Speed - (North)    
Max Wind Speed -    
Max Gust Speed -    
Visibility 10 miles    
Events      
Averages and records for this station are not official NWS values.
T = Trace of Precipitation, MM = Missing Value Source: NWS Daily Summary

Daily Weather History Graph

Daily Weather History Graph

Search for Another Location

Airport or City:

Trip Planner

Search our weather history database for the weather conditions in past years. The results will help you decide how hot, cold, wet, or windy it might be!

Date:

Astronomy

Sep. 23, 2013 Rise Set
Actual Time 7:33 AM CDT 7:39 PM CDT
Civil Twilight 7:09 AM CDT 8:03 PM CDT
Nautical Twilight 6:41 AM CDT 8:31 PM CDT
Astronomical Twilight 6:13 AM CDT 9:00 PM CDT
Moon 10:32 PM CDT (9/23) 11:36 AM CDT (9/23)
Length of Visible Light 12h 54m
Length of Day
12h 05m
Waning Gibbous, 81% of the Moon is Illuminated
Sep 23
Waning Gibbous
Sep 26
Last Quarter
Oct 4
New
Oct 11
First Quarter
Oct 18
Full

Hourly Weather History & Observations

Time (CDT) Temp. Heat Index Dew Point Humidity Pressure Visibility Wind Dir Wind Speed Gust Speed Precip Events Conditions
12:15 AM 57.2 °F - 53.6 °F 88% 29.89 in 10.0 mi North - - N/A   Clear
12:35 AM 57.2 °F - 53.6 °F 88% 29.88 in 10.0 mi North - - N/A   Clear
12:55 AM 57.2 °F - 51.8 °F 82% 29.88 in 10.0 mi North - - N/A   Clear
1:15 AM 55.4 °F - 51.8 °F 88% 29.88 in 7.0 mi North - - N/A   Clear
1:35 AM 57.2 °F - 51.8 °F 82% 29.87 in 10.0 mi North - - N/A   Clear
1:55 AM 55.4 °F - 51.8 °F 88% 29.88 in 10.0 mi North - - N/A   Clear
2:15 AM 55.4 °F - 51.8 °F 88% 29.88 in 10.0 mi North - - N/A   Clear
2:35 AM 55.4 °F - 51.8 °F 88% 29.88 in 10.0 mi North - - N/A   Clear
2:55 AM 55.4 °F - 51.8 °F 88% 29.87 in 10.0 mi North - - N/A   Clear
3:15 AM 53.6 °F - 50.0 °F 88% 29.87 in 10.0 mi North - - N/A   Clear
3:35 AM 53.6 °F - 50.0 °F 88% 29.86 in 10.0 mi North - - N/A   Clear
3:55 AM 53.6 °F - 50.0 °F 88% 29.86 in 10.0 mi North - - N/A   Clear
4:15 AM 53.6 °F - 50.0 °F 88% 29.86 in 10.0 mi North - - N/A   Clear
4:35 AM 51.8 °F - 50.0 °F 94% 29.86 in 10.0 mi North - - N/A   Clear
4:55 AM 51.8 °F - 50.0 °F 94% 29.86 in 10.0 mi North - - N/A   Clear
5:15 AM 51.8 °F - 50.0 °F 94% 29.86 in 10.0 mi North - - N/A   Clear
5:35 AM 51.8 °F - 50.0 °F 94% 29.87 in 10.0 mi North - - N/A   Clear
5:55 AM 51.8 °F - 50.0 °F 94% 29.86 in 10.0 mi North - - N/A   Clear
6:15 AM 51.8 °F - 50.0 °F 94% 29.87 in 10.0 mi North - - N/A   Clear
6:35 AM 51.8 °F - 50.0 °F 94% 29.87 in 10.0 mi North - - N/A   Clear
6:55 AM 51.8 °F - 50.0 °F 94% 29.87 in 10.0 mi North - - N/A   Clear
7:15 AM 51.8 °F - 50.0 °F 94% 29.88 in 10.0 mi North - - N/A   Clear
7:35 AM 51.8 °F - 50.0 °F 94% 29.88 in 10.0 mi North - - N/A   Clear
7:55 AM 51.8 °F - 50.0 °F 94% 29.88 in 10.0 mi North - - N/A   Clear
8:15 AM 53.6 °F - 50.0 °F 88% 29.88 in 10.0 mi North - - N/A   Clear
8:35 AM 59.0 °F - 50.0 °F 72% 29.89 in 10.0 mi North - - N/A   Clear
8:55 AM 62.6 °F - 51.8 °F 68% 29.89 in 10.0 mi North - - N/A   Clear
9:15 AM 64.4 °F - 50.0 °F 59% 29.89 in 10.0 mi North - - N/A   Clear
9:35 AM 68.0 °F - 50.0 °F 52% 29.89 in 10.0 mi North - - N/A   Clear
9:55 AM 68.0 °F - 50.0 °F 52% 29.90 in 10.0 mi North - - N/A   Clear
10:15 AM 69.8 °F - 50.0 °F 49% 29.90 in 10.0 mi North - - N/A   Clear
10:35 AM 71.6 °F - 50.0 °F 46% 29.90 in 10.0 mi North - - N/A   Clear
10:55 AM 73.4 °F - 50.0 °F 44% 29.90 in 10.0 mi North - - N/A   Clear
11:15 AM 73.4 °F - 50.0 °F 44% 29.90 in 10.0 mi North - - N/A   Clear
11:35 AM 77.0 °F - 50.0 °F 39% 29.90 in 10.0 mi North - - N/A   Clear
11:55 AM 77.0 °F - 50.0 °F 39% 29.90 in 10.0 mi North - - N/A   Clear
12:15 PM 78.8 °F - 50.0 °F 36% 29.89 in 10.0 mi North - - N/A   Clear
12:35 PM 78.8 °F - 50.0 °F 36% 29.89 in 10.0 mi North - - N/A   Clear
1:15 PM 80.6 °F - 51.8 °F 37% 29.88 in 10.0 mi North - - N/A   Clear
1:35 PM 80.6 °F - 51.8 °F 37% 29.88 in 10.0 mi North - - N/A   Clear
1:55 PM 82.4 °F - 51.8 °F 35% 29.87 in 10.0 mi North - - N/A   Clear
2:15 PM 82.4 °F - 51.8 °F 35% 29.86 in 10.0 mi North - - N/A   Clear
2:35 PM 84.2 °F - 51.8 °F 33% 29.85 in 10.0 mi North - - N/A   Clear
2:55 PM 84.2 °F - 51.8 °F 33% 29.85 in 10.0 mi North - - N/A   Clear
3:15 PM 86.0 °F - 51.8 °F 31% 29.84 in 10.0 mi North - - N/A   Clear
3:35 PM 86.0 °F 84.2 °F 53.6 °F 33% 29.84 in 10.0 mi North - - N/A   Clear
3:55 PM 86.0 °F 84.2 °F 53.6 °F 33% 29.84 in 10.0 mi North - - N/A   Clear
4:15 PM 86.0 °F 84.2 °F 53.6 °F 33% 29.83 in 10.0 mi North - - N/A   Clear
4:35 PM 87.8 °F 85.7 °F 53.6 °F 31% 29.83 in 10.0 mi North - - N/A   Clear
4:55 PM 87.8 °F 85.7 °F 53.6 °F 31% 29.83 in 10.0 mi North - - N/A   Clear
5:15 PM 86.0 °F 84.2 °F 53.6 °F 33% 29.83 in 10.0 mi North - - N/A   Clear
5:35 PM 86.0 °F 84.2 °F 53.6 °F 33% 29.83 in 10.0 mi North - - N/A   Clear
5:55 PM 86.0 °F 84.2 °F 53.6 °F 33% 29.83 in 10.0 mi North - - N/A   Clear
6:15 PM 86.0 °F 84.2 °F 53.6 °F 33% 29.83 in 10.0 mi North - - N/A   Clear
6:35 PM 86.0 °F 84.2 °F 53.6 °F 33% 29.84 in 10.0 mi North - - N/A   Clear
6:55 PM 82.4 °F 81.4 °F 53.6 °F 37% 29.83 in 10.0 mi North - - N/A   Clear
7:15 PM 82.4 °F 81.7 °F 55.4 °F 39% 29.84 in 10.0 mi North - - N/A   Clear
7:35 PM 78.8 °F - 55.4 °F 44% 29.84 in 10.0 mi North - - N/A   Clear
7:55 PM 77.0 °F - 57.2 °F 50% 29.85 in 10.0 mi North - - N/A   Clear
8:15 PM 75.2 °F - 57.2 °F 53% 29.86 in 10.0 mi North - - N/A   Clear
8:35 PM 73.4 °F - 59.0 °F 61% 29.86 in 10.0 mi North - - N/A   Clear
8:55 PM 73.4 °F - 57.2 °F 57% 29.87 in 10.0 mi North - - N/A   Clear
9:15 PM 73.4 °F - 57.2 °F 57% 29.88 in 10.0 mi North - - N/A   Clear
9:35 PM 71.6 °F - 57.2 °F 60% 29.89 in 10.0 mi North - - N/A   Clear
9:55 PM 71.6 °F - 59.0 °F 64% 29.89 in 10.0 mi North - - N/A   Clear
10:15 PM 69.8 °F - 59.0 °F 68% 29.90 in 10.0 mi North - - N/A   Clear
10:35 PM 69.8 °F - 59.0 °F 68% 29.91 in 10.0 mi North - - N/A   Clear
10:55 PM 69.8 °F - 57.2 °F 64% 29.91 in 10.0 mi North - - N/A   Clear
11:15 PM 68.0 °F - 59.0 °F 73% 29.93 in 10.0 mi North - - N/A   Clear
11:55 PM 64.4 °F - 59.0 °F 83% 29.94 in 10.0 mi North - - N/A   Clear